FW5863 Weather Reports


Display with metric or nautical units.
time (UTC)temp
F
wind
direction
speed
MPH
gust
MPH
rain 1hr
in
rain 24hr
in
rain mn
in
humidity
%
barometer
mb
20260906104500 0 0.0 0.0 0.00 0.00 0.00 1014.8
20260906103459 0 0.0 0.0 0.00 0.00 0.00 1014.6
20260906102459 0 0.0 0.0 0.00 0.00 0.00 1014.4
20260906101959 0 0.0 0.0 0.00 0.00 0.00 1014.5
20260906101500 0 0.0 0.0 0.00 0.00 0.00 1014.4
20260906100959 0 0.0 0.0 0.00 0.00 0.00 1014.4
20260906100459 60 305 2.0 5.0 0.00 0.00 0.00 96 1014.3
20260906095459 60 299 2.0 5.0 0.00 0.00 0.00 96 1014.2
20260906094959 59 290 1.0 4.0 0.00 0.00 0.00 96 1014.2
20260906094500 59 329 1.0 3.0 0.00 0.00 0.00 96 1014.1
20260906093959 59 50 0.0 0.0 0.00 0.00 0.00 96 1014.1
20260906093459 59 50 0.0 0.0 0.00 0.00 0.00 97 1014.1
20260906091959 58 50 0.0 0.0 0.00 0.00 0.00 97 1014.0
20260906091500 58 50 0.0 0.0 0.00 0.00 0.00 97 1013.9
20260906090459 57 50 0.0 0.0 0.00 0.00 0.00 97 1013.8
20260906090001 57 50 0.0 0.0 0.00 0.00 0.00 97 1013.7
20260906085459 56 50 0.0 0.0 0.00 0.00 0.00 96 1013.7
20260906083959 57 50 0.0 0.0 0.00 0.00 0.00 96 1013.6
20260906083459 57 50 0.0 0.0 0.00 0.00 0.00 96 1013.5
20260906082459 57 50 0.0 0.0 0.00 0.00 0.00 95 1013.4
20260906081959 57 50 0.0 0.0 0.00 0.00 0.00 95 1013.4
20260906081500 57 50 0.0 0.0 0.00 0.00 0.00 95 1013.5
20260906080459 57 50 0.0 0.0 0.00 0.00 0.00 95 1013.4
20260906080000 57 50 0.0 0.0 0.00 0.00 0.00 95 1013.5
20260906075459 57 50 0.0 0.0 0.00 0.00 0.00 95 1013.3
20260906074959 57 50 0.0 0.0 0.00 0.00 0.00 94 1013.4
20260906074500 57 50 0.0 0.0 0.00 0.00 0.00 94 1013.5
20260906073959 58 50 0.0 0.0 0.00 0.00 0.00 94 1013.4
20260906073459 58 50 0.0 0.0 0.00 0.00 0.00 95 1013.5
20260906073000 58 50 0.0 0.0 0.00 0.00 0.00 94 1013.3
20260906072459 58 50 0.0 0.0 0.00 0.00 0.00 94 1013.4
20260906071959 58 50 0.0 0.0 0.00 0.00 0.00 94 1013.4
20260906071500 58 50 0.0 0.0 0.00 0.00 0.00 93 1013.4
20260906070959 58 50 0.0 0.0 0.00 0.00 0.00 93 1013.3
20260906065959 58 50 0.0 0.0 0.00 0.00 0.00 94 1013.4
20260906065459 58 50 0.0 0.0 0.00 0.00 0.00 93 1013.4
20260906064959 58 50 0.0 0.0 0.00 0.00 0.00 93 1013.3
20260906064500 58 50 0.0 0.0 0.00 0.00 0.00 93 1013.3
20260906063459 59 50 0.0 0.0 0.00 0.00 0.00 92 1013.5
20260906063000 59 50 0.0 0.0 0.00 0.00 0.00 92 1013.4
20260906062459 59 50 0.0 0.0 0.00 0.00 0.00 92 1013.4
20260906061959 59 50 0.0 0.0 0.00 0.00 0.00 92 1013.4
20260906061500 59 50 0.0 0.0 0.00 0.00 0.00 92 1013.4
20260906060959 59 50 0.0 0.0 0.00 0.00 0.00 92 1013.4
20260906060459 59 50 0.0 0.0 0.00 0.00 0.00 91 1013.5
20260906060000 60 50 0.0 0.0 0.00 0.00 0.00 91 1013.6
20260906055459 60 50 0.0 0.0 0.00 0.00 0.00 90 1013.6
20260906054459 60 50 0.0 1.0 0.00 0.00 0.00 93 1013.6
20260906053959 60 50 0.0 1.0 0.00 0.00 0.00 93 1013.7
20260906052959 59 50 0.0 0.0 0.00 0.00 0.00 94 1013.9
20260906052459 59 50 0.0 0.0 0.00 0.00 0.00 93 1013.8
20260906051959 59 50 0.0 0.0 0.00 0.00 0.00 92 1013.8
20260906051500 59 50 0.0 1.0 0.00 0.00 0.00 91 1013.8
20260906050959 59 50 0.0 1.0 0.00 0.00 0.00 90 1013.7
20260906050459 59 50 0.0 0.0 0.00 0.00 0.00 89 1013.8
20260906050000 60 321 0.0 1.0 0.00 0.00 0.00 89 1013.8
20260906045459 60 321 1.0 3.0 0.00 0.00 0.00 91 1013.8
20260906044959 60 321 1.0 3.0 0.00 0.00 0.00 92 1013.8
20260906044500 60 322 0.0 3.0 0.00 0.00 0.00 92 1013.8
20260906043959 60 304 0.0 0.0 0.00 0.00 0.00 92 1013.9
20260906043459 59 304 0.0 0.0 0.00 0.00 0.00 92 1013.9
20260906043000 59 303 0.0 0.0 0.00 0.00 0.00 92 1013.8
20260906042459 59 302 0.0 0.0 0.00 0.00 0.00 92 1013.8
20260906041959 59 303 0.0 0.0 0.00 0.00 0.00 91 1013.8
20260906041500 60 304 0.0 0.0 0.00 0.00 0.00 91 1013.8
20260906040459 60 304 0.0 0.0 0.00 0.00 0.00 91 1013.7
20260906040000 60 304 0.0 0.0 0.00 0.00 0.00 92 1013.7
20260906035459 60 304 0.0 0.0 0.00 0.00 0.00 91 1013.7
20260906034959 60 304 0.0 0.0 0.00 0.00 0.00 91 1013.7
20260906034459 60 304 0.0 0.0 0.00 0.00 0.00 90 1013.7
20260906033959 60 304 0.0 0.0 0.00 0.00 0.00 89 1013.7
20260906033459 61 304 0.0 0.0 0.00 0.00 0.00 89 1013.6
20260906032959 61 304 0.0 0.0 0.00 0.00 0.00 88 1013.6
20260906032459 61 304 0.0 0.0 0.00 0.00 0.00 90 1013.6
20260906031959 61 304 0.0 0.0 0.00 0.00 0.00 91 1013.7
20260906031501 60 304 0.0 0.0 0.00 0.00 0.00 92 1013.6
20260906030459 60 304 0.0 0.0 0.00 0.00 0.00 92 1013.5
20260906030000 60 304 0.0 0.0 0.00 0.00 0.00 92 1013.5
20260906025459 60 304 0.0 0.0 0.00 0.00 0.00 92 1013.5
20260906024959 60 304 0.0 0.0 0.00 0.00 0.00 91 1013.5
20260906024500 60 304 0.0 0.0 0.00 0.00 0.00 91 1013.4
20260906023959 60 304 0.0 0.0 0.00 0.00 0.00 91 1013.4
20260906023459 60 304 0.0 0.0 0.00 0.00 0.00 90 1013.4
20260906023000 61 304 0.0 0.0 0.00 0.00 0.00 90 1013.4
20260906022459 61 309 0.0 0.0 0.00 0.00 0.00 90 1013.2
20260906021959 61 309 0.0 0.0 0.00 0.00 0.00 90 1013.3
20260906021500 61 310 0.0 0.0 0.00 0.00 0.00 91 1013.3
20260906020959 61 310 0.0 0.0 0.00 0.00 0.00 90 1013.5
20260906020459 61 310 0.0 0.0 0.00 0.00 0.00 89 1013.4
20260906020000 62 50 0.0 0.0 0.00 0.00 0.00 88 1013.4
20260906015459 62 50 0.0 0.0 0.00 0.00 0.00 88 1013.3
20260906014959 62 50 0.0 0.0 0.00 0.00 0.00 88 1013.2
20260906014504 62 50 0.0 0.0 0.00 0.00 0.00 88 1013.3
20260906013959 62 50 0.0 0.0 0.00 0.00 0.00 88 1013.3
20260906013459 62 50 0.0 0.0 0.00 0.00 0.00 88 1013.3
20260906013000 63 50 0.0 0.0 0.00 0.00 0.00 88 1013.3
20260906011500 64 50 0.0 0.0 0.00 0.00 0.00 86 1013.1
20260906010459 64 50 0.0 0.0 0.00 0.00 0.00 84 1012.8
20260906005459 65 50 0.0 0.0 0.00 0.00 0.00 82 1012.7
20260906004959 65 50 0.0 0.0 0.00 0.00 0.00 82 1012.7
20260906003959 66 50 1.0 3.0 0.00 0.00 0.00 81 1012.6
20260906003000 66 50 2.0 4.0 0.00 0.00 0.00 80 1012.3
20260906002459 66 50 1.0 4.0 0.00 0.00 0.00 80 1012.3
20260906001500 67 50 0.0 0.0 0.00 0.00 0.00 78 1012.4
20260906000959 67 50 0.0 0.0 0.00 0.00 0.00 78 1012.4
20260905235459 69 50 1.0 4.0 0.00 0.00 0.00 75 1012.2
20260905234959 69 50 2.0 4.0 0.00 0.00 0.00 75 1012.1
20260905234500 69 50 2.0 6.0 0.00 0.00 0.00 74 1012.1
20260905233959 69 50 2.0 6.0 0.00 0.00 0.00 74 1012.0
20260905233459 70 50 2.0 4.0 0.00 0.00 0.00 74 1011.8
20260905232959 70 50 2.0 3.0 0.00 0.00 0.00 74 1011.9
20260905231959 71 50 2.0 3.0 0.00 0.00 0.00 72 1011.9
20260905231459 71 50 2.0 3.0 0.00 0.00 0.00 71 1011.9
20260905230959 72 50 1.0 3.0 0.00 0.00 0.00 71 1011.9
20260905230459 72 3 1.0 3.0 0.00 0.00 0.00 70 1011.8
20260905225959 73 50 2.0 4.0 0.00 0.00 0.00 69 1011.9
20260905225459 73 3 3.0 4.0 0.00 0.00 0.00 68 1011.8
20260905224500 74 350 2.0 6.0 0.00 0.00 0.00 67 1011.7
20260905223959 75 347 2.0 5.0 0.00 0.00 0.00 67 1011.6
20260905223459 75 1 2.0 5.0 0.00 0.00 0.00 67 1011.7
20260905222959 75 36 2.0 4.0 0.00 0.00 0.00 66 1011.7
20260905222459 75 11 3.0 5.0 0.00 0.00 0.00 66 1011.7
20260905221959 75 340 3.0 6.0 0.00 0.00 0.00 65 1011.6
20260905221500 75 327 4.0 6.0 0.00 0.00 0.00 64 1011.6
20260905220959 75 305 3.0 6.0 0.00 0.00 0.00 64 1011.7
20260905220459 75 354 4.0 10.0 0.00 0.00 0.00 65 1011.6
20260905215959 75 340 4.0 10.0 0.00 0.00 0.00 64 1011.6
20260905215459 75 360 4.0 8.0 0.00 0.00 0.00 64 1011.5
20260905214959 75 7 4.0 9.0 0.00 0.00 0.00 62 1011.5
20260905214500 76 345 3.0 9.0 0.00 0.00 0.00 62 1011.5
20260905213959 76 23 3.0 7.0 0.00 0.00 0.00 62 1011.4
20260905213459 77 300 3.0 6.0 0.00 0.00 0.00 63 1011.4
20260905212959 76 314 3.0 6.0 0.00 0.00 0.00 63 1011.4
20260905212459 75 323 4.0 8.0 0.00 0.00 0.00 64 1011.4
20260905211959 75 322 4.0 9.0 0.00 0.00 0.00 63 1011.4
20260905211500 75 355 3.0 9.0 0.00 0.00 0.00 63 1011.4
20260905210959 75 322 2.0 5.0 0.00 0.00 0.00 65 1011.4
20260905210459 75 334 3.0 7.0 0.00 0.00 0.00 64 1011.4
20260905210000 75 340 4.0 7.0 0.00 0.00 0.00 63 1011.3
20260905205459 75 336 4.0 9.0 0.00 0.00 0.00 62 1011.3
20260905204959 76 350 6.0 11.0 0.00 0.00 0.00 61 1011.5
20260905204459 76 329 5.0 11.0 0.00 0.00 0.00 58 1011.5
20260905203959 77 355 3.0 11.0 0.00 0.00 0.00 58 1011.4
20260905203459 77 356 3.0 9.0 0.00 0.00 0.00 63 1011.3
20260905202959 77 21 5.0 9.0 0.00 0.00 0.00 60 1011.4
20260905201959 77 321 4.0 11.0 0.00 0.00 0.00 61 1011.4
20260905200959 76 7 3.0 7.0 0.00 0.00 0.00 66 1011.4
20260905200459 75 311 3.0 8.0 0.00 0.00 0.00 67 1011.4
20260905195459 75 327 4.0 8.0 0.00 0.00 0.00 61 1011.5
20260905194959 76 341 5.0 9.0 0.00 0.00 0.00 62 1011.5
20260905193959 77 13 6.0 12.0 0.00 0.00 0.00 60 1011.5
20260905193458 77 314 5.0 12.0 0.00 0.00 0.00 59 1011.6
20260905192959 77 24 5.0 10.0 0.00 0.00 0.00 61 1011.4
20260905191959 78 27 5.0 13.0 0.00 0.00 0.00 59 1011.4
20260905191500 78 21 4.0 13.0 0.00 0.00 0.00 60 1011.4
20260905190959 78 55 4.0 10.0 0.00 0.00 0.00 57 1011.5
20260905185959 78 332 5.0 10.0 0.00 0.00 0.00 62 1011.6
20260905185000 78 314 4.0 11.0 0.00 0.00 0.00 61 1011.6
20260905184459 78 286 3.0 8.0 0.00 0.00 0.00 62 1011.7
20260905183959 77 324 4.0 8.0 0.00 0.00 0.00 65 1011.8
20260905183458 77 220 5.0 10.0 0.00 0.00 0.00 65 1011.8
20260905183000 76 302 6.0 11.0 0.00 0.00 0.00 64 1011.9
20260905182500 76 36 5.0 11.0 0.00 0.00 0.00 63 1011.9
20260905181959 76 298 4.0 10.0 0.00 0.00 0.00 64 1011.9
20260905181500 75 303 5.0 10.0 0.00 0.00 0.00 65 1011.9
20260905180959 74 349 5.0 11.0 0.00 0.00 0.00 67 1012.0
20260905175959 76 9 6.0 11.0 0.00 0.00 0.00 63 1012.2
20260905175459 76 359 7.0 12.0 0.00 0.00 0.00 63 1012.2
20260905174958 76 317 7.0 12.0 0.00 0.00 0.00 65 1012.1
20260905174459 76 344 6.0 13.0 0.00 0.00 0.00 60 1012.1
20260905173958 77 65 5.0 13.0 0.00 0.00 0.00 61 1012.1
20260905173459 76 309 5.0 10.0 0.00 0.00 0.00 67 1012.0
20260905172459 76 317 6.0 13.0 0.00 0.00 0.00 64 1012.1
20260905171959 75 327 6.0 11.0 0.00 0.00 0.00 64 1012.1
20260905171501 75 317 6.0 12.0 0.00 0.00 0.00 62 1012.1
20260905170959 76 315 5.0 12.0 0.00 0.00 0.00 65 1012.1
20260905170459 76 355 4.0 12.0 0.00 0.00 0.00 64 1012.0
20260905165459 76 331 5.0 10.0 0.00 0.00 0.00 65 1012.2
20260905164959 76 352 4.0 10.0 0.00 0.00 0.00 67 1012.3
20260905164500 76 45 5.0 12.0 0.00 0.00 0.00 71 1012.3
20260905163959 75 17 6.0 12.0 0.00 0.00 0.00 67 1012.5
20260905163459 75 21 6.0 11.0 0.00 0.00 0.00 65 1012.4
20260905162959 75 13 6.0 11.0 0.00 0.00 0.00 64 1012.5
20260905162000 75 331 6.0 12.0 0.00 0.00 0.00 69 1012.7
20260905160959 75 327 6.0 13.0 0.00 0.00 0.00 66 1012.7
20260905160459 75 360 6.0 15.0 0.00 0.00 0.00 68 1012.7
20260905155959 75 321 6.0 15.0 0.00 0.00 0.00 65 1012.7
20260905155459 74 312 6.0 11.0 0.00 0.00 0.00 69 1012.8
20260905154500 74 354 6.0 12.0 0.00 0.00 0.00 68 1012.8
20260905153958 74 359 6.0 12.0 0.00 0.00 0.00 67 1012.8
20260905153459 74 291 5.0 9.0 0.00 0.00 0.00 68 1012.8
20260905153000 74 342 4.0 9.0 0.00 0.00 0.00 69 1012.8
20260905152501 73 32 5.0 11.0 0.00 0.00 0.00 70 1012.7
20260905151958 74 347 5.0 11.0 0.00 0.00 0.00 69 1012.8
20260905151501 74 319 5.0 10.0 0.00 0.00 0.00 71 1012.6
20260905150959 74 3 5.0 10.0 0.00 0.00 0.00 70 1012.6
20260905150459 73 348 4.0 10.0 0.00 0.00 0.00 72 1012.6
20260905150000 73 7 6.0 12.0 0.00 0.00 0.00 72 1012.6
20260905145459 72 7 6.0 12.0 0.00 0.00 0.00 74 1012.6
20260905144959 73 45 6.0 12.0 0.00 0.00 0.00 71 1012.6
20260905144459 73 1 5.0 12.0 0.00 0.00 0.00 72 1012.5
20260905143959 72 342 5.0 12.0 0.00 0.00 0.00 72 1012.5
20260905143459 72 349 5.0 12.0 0.00 0.00 0.00 72 1012.5
20260905142959 72 339 5.0 11.0 0.00 0.00 0.00 75 1012.6
20260905142459 72 28 6.0 11.0 0.00 0.00 0.00 74 1012.6
20260905141500 71 28 6.0 11.0 0.00 0.00 0.00 74 1012.7
20260905140959 72 8 4.0 8.0 0.00 0.00 0.00 73 1012.7
20260905140458 72 19 5.0 10.0 0.00 0.00 0.00 76 1012.7
20260905140000 72 331 5.0 10.0 0.00 0.00 0.00 73 1012.7
20260905135459 72 317 3.0 8.0 0.00 0.00 0.00 76 1012.8
20260905134958 72 334 3.0 7.0 0.00 0.00 0.00 75 1012.7
20260905133959 72 337 2.0 7.0 0.00 0.00 0.00 74 1012.7
20260905133459 71 336 3.0 8.0 0.00 0.00 0.00 77 1012.8
20260905132959 71 359 4.0 8.0 0.00 0.00 0.00 75 1012.7
20260905132459 71 356 4.0 8.0 0.00 0.00 0.00 76 1012.7
20260905131959 71 12 4.0 6.0 0.00 0.00 0.00 77 1012.6
20260905131500 71 359 4.0 9.0 0.00 0.00 0.00 77 1012.5
20260905130959 71 334 3.0 9.0 0.00 0.00 0.00 76 1012.4
20260905130459 70 348 2.0 7.0 0.00 0.00 0.00 78 1012.5
20260905125959 70 31 3.0 8.0 0.00 0.00 0.00 80 1012.4
20260905125459 70 32 5.0 10.0 0.00 0.00 0.00 79 1012.4
20260905124959 70 341 6.0 10.0 0.00 0.00 0.00 79 1012.5
20260905124459 70 358 5.0 11.0 0.00 0.00 0.00 79 1012.6
20260905123959 70 10 4.0 11.0 0.00 0.00 0.00 79 1012.6
20260905123000 69 32 4.0 6.0 0.00 0.00 0.00 80 1012.6
20260905121959 69 33 2.0 6.0 0.00 0.00 0.00 81 1012.7
20260905121459 69 9 2.0 4.0 0.00 0.00 0.00 83 1012.7
20260905120958 69 8 2.0 4.0 0.00 0.00 0.00 82 1012.6
20260905115959 0 0.0 0.0 0.00 0.00 0.00 1012.6
20260905115458 0 0.0 0.0 0.00 0.00 0.00 1012.5
20260905114459 0 0.0 0.0 0.00 0.00 0.00 1012.6
20260905113458 0 0.0 0.0 0.00 0.00 0.00 1012.6
20260905112959 0 0.0 0.0 0.00 0.00 0.00 1012.6
20260905112458 0 0.0 0.0 0.00 0.00 0.00 1012.5
20260905111958 0 0.0 0.0 0.00 0.00 0.00 1012.5
20260905110958 0 0.0 0.0 0.00 0.00 0.00 1012.3
20260905110459 0 0.0 0.0 0.00 0.00 0.00 1012.2
20260905105959 0 0.0 0.0 0.00 0.00 0.00 1012.1
20260905105459 0 0.0 0.0 0.00 0.00 0.00 1012.2